Temperature
21 21 21 21 21 21 21 21 20 20 20 20 19 19 18 18 17 16 16 15 15 14 14 14 14 14 14 13 13 13 13 13 13 13 13 13 13 13 13 13 13 13 13 13
20 21 21 20 21 21 21 21 20 20 19 20 20 19 18 17 17 16 16 15 15 14 14 14 14 13 13 13 13 13 13 13 13 13 13 13 13 13 13 12 12 12 12 12
19 20 20 19 20 20 20 21 20 19 19 19 19 18 18 17 16 16 15 15 14 14 14 13 13 13 13 12 12 12 12 12 12 12 12 12 12 12 12 12 12 12 12 12
18 19 18 19 21 20 20 20 20 19 19 19 18 17 17 16 16 15 15 14 14 13 13 13 13 13 12 12 12 12 12 12 12 12 12 12 12 12 12 12 12 11 11 11
18 17 18 19 19 19 19 19 19 19 18 18 17 16 16 16 15 14 14 13 13 13 13 13 12 12 12 12 12 12 12 11 11 11 11 11 11 11 11 11 11 11 11 11
17 17 17 18 19 19 18 17 18 18 18 17 16 15 15 15 14 14 13 13 12 12 12 12 12 12 12 11 11 11 11 11 11 11 11 11 11 11 11 11 10 10 10 10
16 17 18 18 18 18 17 16 17 17 16 16 16 15 14 14 13 13 13 12 12 12 12 11 11 11 11 11 11 11 11 11 11 10 10 10 10 10 10 10 10 10 10 10
16 16 16 17 17 17 16 16 16 16 15 15 14 14 14 13 13 12 12 12 11 11 11 11 11 11 11 11 10 10 10 10 10 10 10 10 10 10 10 10 10 10 10 9
17 16 17 17 16 16 16 15 15 15 14 14 14 13 13 12 12 12 11 11 11 11 10 10 10 10 10 10 10 10 10 10 10 9 9 9 9 9 9 9 9 9 9 9
16 16 16 16 16 15 15 15 14 14 14 13 13 12 12 12 12 11 11 10 10 10 10 10 10 10 10 10 9 9 9 9 9 9 9 9 9 9 9 9 9 9 9 9
16 16 16 15 15 14 14 14 13 13 13 13 12 12 11 11 11 11 10 10 10 10 10 9 9 9 9 9 9 9 9 9 9 8 8 8 8 8 8 8 8 8 8 8
15 16 15 15 14 14 13 13 13 13 12 12 12 11 11 11 10 10 10 10 9 9 9 9 9 9 9 9 9 8 8 8 8 8 8 8 8 8 8 8 8 8 8 8
15 15 14 14 13 13 13 12 12 12 12 11 11 11 11 10 10 10 9 9 9 9 9 9 9 8 8 8 8 8 8 8 8 8 8 8 8 7 8 8 8 7 7 7
14 13 13 13 13 12 12 12 12 11 11 11 11 10 10 10 10 9 9 9 9 9 9 9 8 8 8 8 8 8 8 8 7 7 7 7 7 7 7 7 7 7 7 7
13 12 12 12 12 12 11 11 11 11 11 10 10 10 10 9 9 9 9 9 9 9 9 8 8 8 8 8 8 7 7 7 7 7 7 7 7 7 7 7 7 7 6 7
12 12 11 11 11 11 11 11 11 10 10 10 10 9 9 9 9 9 9 9 8 8 8 8 8 8 8 7 7 7 7 7 7 7 7 6 6 6 6 6 6 6 6 6
11 11 11 10 10 10 10 10 10 10 10 9 9 9 9 9 8 8 8 8 8 8 8 8 8 7 7 7 7 7 7 6 6 6 6 6 6 6 6 6 6 6 6 6
11 11 10 10 10 10 10 10 9 9 9 9 9 9 8 8 8 8 8 8 8 7 7 8 7 7 7 7 7 7 6 6 6 6 6 6 6 6 6 6 6 6 5 5
11 10 10 10 9 9 9 9 9 9 8 8 8 8 8 8 7 7 7 7 7 7 7 7 7 7 7 6 6 6 6 6 5 5 5 5 5 5 5 5 5 5 5 5
10 10 9 9 9 9 8 8 8 8 8 8 8 7 7 7 7 7 7 7 6 7 7 7 7 7 6 6 6 6 5 5 5 5 5 5 5 5 5 5 5 5 5 5
9 9 9 8 8 8 8 8 8 8 7 7 7 7 7 7 6 6 6 6 6 6 6 6 6 6 6 6 5 5 5 5 5 4 4 4 4 4 4 4 4 4 4 4
9 8 8 8 8 8 7 7 7 7 7 7 7 6 6 6 6 6 6 6 6 6 6 6 6 5 5 5 5 5 4 4 4 4 4 4 4 4 4 4 4 4 4 3
8 8 8 8 7 7 7 7 7 7 6 6 6 6 6 6 6 5 5 5 5 5 5 5 5 5 5 5 5 4 4 4 4 3 3 3 3 3 3 3 3 3 3 3
8 8 7 7 7 7 7 7 6 6 6 6 6 6 5 5 5 5 5 5 5 5 5 5 5 5 4 4 4 4 4 3 3 3 3 3 3 3 3 3 3 3 3 3
7 7 7 7 7 7 6 6 6 6 5 5 5 5 5 5 5 5 5 4 4 4 4 4 4 4 4 4 4 3 3 3 3 3 3 3 3 3 3 3 3 3 3 3
7 7 7 7 6 6 6 6 5 5 5 5 5 5 4 4 4 4 4 4 4 4 4 4 4 3 3 3 3 3 3 3 2 2 2 2 2 2 2 2 2 2 3 3
7 6 6 6 6 6 5 5 5 5 5 4 4 4 4 4 4 4 3 3 3 3 3 3 3 3 3 3 3 2 2 2 2 2 2 2 2 2 2 2 2 2 2 2
Wind_Speed
9 8 8 9 10 9 10 10 10 8 7 4 1 1 2 2 2 1 1 1 1 0 0 1 1 1 1 1 1 1 1 0 1 1 1 2 1 1 0 1 1 1 1 0
10 9 8 11 11 11 10 10 10 8 7 3 2 0 1 2 1 1 1 1 1 1 1 1 0 1 1 0 0 1 1 0 1 1 2 2 1 2 1 1 1 1 1 1
9 8 9 9 8 8 7 7 7 7 5 2 2 1 0 1 2 0 1 2 1 2 2 2 2 0 0 1 1 0 0 1 1 1 2 2 2 2 1 1 1 0 1 0
7 8 8 2 2 3 4 5 4 4 2 2 2 2 2 1 1 1 2 2 2 2 2 2 1 1 1 1 1 1 1 1 1 1 1 2 2 2 2 1 1 1 1 1
5 7 8 4 1 2 4 5 3 2 2 2 2 2 1 2 2 2 2 2 2 3 2 2 1 1 1 1 1 1 0 1 1 0 1 1 2 2 2 2 2 2 1 2
6 7 6 0 3 4 4 4 2 2 2 2 2 3 2 2 2 2 2 2 3 4 3 2 2 2 1 1 1 1 1 1 1 1 1 2 3 3 2 2 2 2 2 2
9 8 5 1 1 2 3 2 4 4 3 3 4 2 1 2 2 2 2 2 3 4 3 2 2 2 2 1 2 2 1 1 1 2 2 2 2 2 2 2 3 3 3 3
6 7 4 2 1 2 2 4 4 4 4 4 4 3 2 2 2 2 2 3 3 3 2 2 2 3 2 2 2 2 2 1 2 2 2 2 1 2 2 2 3 3 3 3
3 2 1 1 3 3 3 4 4 4 4 4 3 3 3 2 1 2 2 3 3 3 2 2 2 2 2 2 2 2 2 2 2 2 2 2 2 2 2 2 2 3 3 3
5 4 3 3 3 3 4 4 4 4 4 4 4 4 4 3 2 2 2 2 2 2 2 3 2 2 2 2 2 3 3 2 2 2 2 2 1 1 2 2 3 3 3 3
8 6 4 4 4 4 4 4 5 4 5 5 4 4 4 4 3 2 2 2 2 3 2 3 3 2 2 1 2 3 3 2 2 2 2 2 2 2 2 2 3 3 3 3
6 5 5 4 3 4 5 5 5 5 5 5 5 5 4 4 3 3 3 3 3 3 3 3 3 2 2 1 2 3 3 2 2 2 2 1 2 3 3 3 4 5 5 5
5 5 5 4 4 4 5 5 5 5 5 5 5 4 4 4 3 3 3 4 4 3 3 3 3 2 2 1 2 3 3 3 2 2 2 2 2 2 3 4 4 5 6 6
4 4 5 5 5 5 5 5 5 5 4 4 4 3 4 4 4 4 4 4 3 3 3 3 3 3 2 1 2 3 3 3 3 3 3 3 3 3 3 3 4 4 4 6
4 5 5 5 5 5 4 4 5 4 4 4 3 3 4 4 5 5 4 4 3 3 4 3 3 3 2 2 3 4 3 2 3 3 3 3 3 4 4 4 4 4 3 3
5 5 4 5 5 6 6 6 5 5 4 5 4 4 4 4 5 5 4 3 3 4 4 3 3 3 2 2 3 3 3 5 4 3 3 3 3 4 4 4 4 4 4 3
4 4 4 5 5 6 6 5 5 5 5 5 5 4 4 4 4 5 4 3 3 4 3 3 3 2 2 3 3 3 3 3 5 4 4 4 3 4 4 4 4 4 4 4
4 4 4 4 5 5 5 6 5 5 5 5 4 4 3 4 4 4 3 3 3 3 3 3 2 2 3 3 3 3 3 3 3 4 3 3 4 4 4 4 4 5 4 4
2 3 3 4 4 4 5 5 5 4 4 3 3 3 3 3 3 3 3 4 4 4 4 3 5 3 3 3 3 2 3 3 3 3 3 4 5 4 4 4 4 4 4 4
2 2 3 4 4 4 5 5 4 4 3 3 3 3 3 3 3 3 4 4 3 3 3 3 3 3 3 3 4 3 3 3 3 3 3 3 4 4 4 4 4 4 4 4
2 2 3 4 4 5 5 5 4 4 3 2 3 3 4 3 3 3 3 3 3 2 3 4 2 2 2 3 4 2 2 3 3 3 3 4 4 4 4 4 4 4 4 4
2 3 3 4 4 5 4 4 3 4 3 3 3 3 3 3 3 3 3 3 2 3 3 2 2 3 4 4 2 2 2 3 3 3 3 3 4 4 4 4 4 4 4 4
2 3 4 4 5 5 5 4 3 3 3 3 3 3 3 3 2 3 3 2 1 4 3 2 4 5 5 3 2 2 3 3 3 3 3 4 4 4 4 4 4 4 4 4
3 3 4 4 4 4 4 4 3 3 3 3 3 3 2 2 2 2 2 2 3 4 3 3 4 6 5 2 2 3 3 3 3 3 4 4 4 4 4 4 4 4 4 4
3 4 4 4 4 4 4 4 3 3 3 3 3 3 2 2 2 2 2 2 3 3 3 3 5 6 4 3 3 3 3 3 4 4 4 4 4 4 5 5 4 4 4 4
3 3 3 4 4 3 3 3 3 3 3 2 2 2 2 2 2 2 2 2 2 3 3 2 3 4 3 3 3 3 3 4 4 4 4 4 5 5 5 4 5 5 4 4
3 3 3 3 3 2 3 3 3 3 3 2 2 2 2 2 2 2 2 2 2 2 2 2 3 3 3 3 3 3 3 3 4 4 4 4 4 4 5 5 4 4 4 4
Wind_Direction
281 292 296 289 277 266 263 268 273 284 289 281 265 193 142 124 108 94 97 97 89 308 209 146 110 82 54 61 100 114 104 314 329 338 341 340 341 314 331 329 317 314 338 89
281 275 278 279 274 265 261 264 268 274 281 301 314 169 140 125 119 72 341 328 341 329 328 336 202 174 128 86 75 107 142 113 14 350 357 9 6 348 346 339 331 343 321 3
278 283 281 271 264 258 262 266 275 278 288 318 320 337 318 141 137 133 349 5 359 347 331 330 321 320 93 151 23 125 135 53 33 19 3 360 1 352 330 288 284 300 294 108
278 281 263 260 10 333 289 286 289 293 319 7 9 7 15 80 86 39 11 348 346 334 335 345 345 353 354 19 356 338 26 10 30 38 4 359 352 335 317 298 278 261 250 243
261 270 272 260 288 327 304 294 315 314 346 24 24 343 333 43 54 43 22 360 341 338 331 350 354 345 325 320 291 277 264 301 328 335 315 304 301 297 307 304 286 265 245 239
254 261 266 254 65 18 313 276 47 352 328 329 307 288 298 34 26 24 15 358 343 336 329 342 349 340 312 276 274 281 274 278 283 272 266 267 275 287 291 284 272 267 252 243
253 258 261 78 54 314 280 355 27 10 0 328 312 322 2 7 15 10 352 350 341 330 333 346 347 329 306 324 324 320 335 324 322 303 277 269 270 287 283 273 267 268 263 256
243 250 246 91 343 329 1 6 3 6 3 350 346 347 354 8 6 354 346 342 339 330 335 347 338 318 309 317 335 338 339 321 318 309 302 309 293 285 288 276 261 266 268 267
266 260 357 327 354 356 345 339 350 351 348 344 327 323 323 313 315 325 317 321 328 319 317 314 316 307 306 329 340 324 301 294 294 302 301 304 297 291 293 282 260 262 261 263
278 256 277 302 311 318 330 319 321 324 321 316 309 305 305 300 283 279 287 292 308 300 295 302 307 304 313 327 322 313 295 283 283 284 299 303 287 279 281 275 273 270 265 266
270 272 279 272 299 321 325 320 306 298 298 298 294 289 287 286 287 274 276 280 286 270 274 288 297 297 312 317 305 300 293 278 285 287 286 300 302 293 279 267 257 262 264 260
269 288 290 294 300 301 297 301 301 297 293 291 286 279 277 275 277 277 274 277 278 268 273 278 283 292 307 318 307 303 306 305 294 291 285 280 280 305 301 269 269 269 264 260
292 316 317 308 305 306 301 302 301 295 289 288 290 285 277 273 271 270 273 273 271 264 268 268 272 283 285 288 294 294 296 299 303 302 293 285 280 279 295 301 280 271 270 268
301 309 299 296 300 305 298 294 291 286 292 296 300 289 277 268 268 267 268 278 270 260 266 266 261 267 265 271 285 287 292 297 298 283 282 278 275 271 268 277 289 286 271 259
291 299 298 304 303 302 297 289 283 282 291 296 297 290 280 268 270 273 278 282 275 270 265 260 261 265 259 262 269 274 281 282 280 280 284 281 279 278 276 275 278 280 280 270
285 296 303 300 293 292 288 281 281 280 285 287 284 280 275 274 276 280 283 278 272 273 272 260 262 262 258 267 272 269 268 278 283 279 274 277 280 280 281 279 277 274 269 266
273 281 287 287 289 286 286 288 286 285 285 283 284 282 275 271 272 275 277 282 280 278 275 264 273 287 283 273 275 275 270 271 280 284 281 279 278 278 278 279 281 279 276 270
255 270 288 293 299 305 305 301 297 294 292 294 296 286 273 270 271 276 284 292 289 290 288 289 286 290 278 271 271 274 277 276 279 281 289 290 290 287 286 285 284 284 289 287
265 283 298 301 306 303 302 305 305 300 298 299 297 291 284 281 282 286 291 290 282 278 285 303 306 293 280 275 288 273 277 281 285 289 288 291 292 291 289 286 287 289 291 291
292 310 310 311 315 311 306 305 300 293 290 293 290 289 289 289 289 285 282 275 273 281 289 293 289 279 280 272 284 275 275 277 280 284 287 287 291 291 288 285 286 287 290 292
289 301 303 306 311 313 311 305 298 295 295 283 275 277 278 283 288 288 284 285 292 308 306 299 296 294 297 296 285 277 274 276 276 280 284 288 290 289 289 289 289 291 292 294
292 301 304 305 307 309 311 308 304 301 297 291 284 283 282 284 288 285 278 278 294 308 316 305 304 302 310 310 288 282 281 285 285 286 286 287 290 291 288 291 289 288 289 290
293 296 299 301 305 309 313 312 308 305 297 294 292 285 276 274 272 272 283 298 309 305 311 304 309 313 311 303 283 279 283 288 291 291 293 295 293 293 290 288 289 289 289 289
293 295 297 299 301 302 306 309 310 304 298 294 287 287 291 288 289 285 276 279 294 298 298 292 301 310 310 294 281 279 279 281 284 285 288 291 291 292 292 290 287 286 285 285
287 288 291 295 293 291 295 303 306 303 299 298 301 311 309 295 289 297 293 274 278 297 301 293 296 304 304 290 286 287 287 286 287 286 284 289 290 289 289 290 290 286 282 280
283 284 286 287 290 294 296 292 287 287 287 291 304 312 314 316 302 297 298 287 275 290 301 298 295 297 296 293 293 292 289 288 284 284 286 287 289 290 288 286 286 285 281 278
274 278 281 284 287 295 303 301 292 288 286 287 296 301 302 304 305 305 303 293 285 284 297 301 300 297 297 300 298 293 290 292 292 290 291 291 293 294 291 287 284 281 279 277
Height
1503 1501 1501 1502 1501 1500 1503 1503 1507 1505 1504 1502 1503 1505 1507 1509 1510 1512 1513 1514 1514 1515 1515 1515 1515 1515 1515 1515 1515 1515 1515 1515 1515 1516 1516 1516 1517 1517 1518 1519 1520 1520 1521 1522
1505 1500 1500 1501 1499 1498 1499 1499 1500 1501 1503 1501 1502 1504 1506 1508 1509 1511 1512 1513 1513 1513 1513 1513 1513 1512 1513 1513 1513 1513 1513 1513 1513 1514 1514 1514 1514 1515 1515 1516 1517 1517 1518 1519
1510 1501 1501 1504 1496 1495 1496 1494 1497 1502 1501 1500 1502 1503 1505 1506 1508 1510 1511 1512 1512 1512 1512 1511 1511 1510 1510 1510 1511 1511 1511 1511 1511 1511 1511 1511 1511 1512 1512 1513 1514 1514 1515 1515
1510 1509 1515 1501 1491 1492 1494 1494 1495 1497 1498 1500 1502 1504 1505 1506 1507 1509 1510 1510 1510 1510 1509 1509 1509 1508 1508 1508 1508 1509 1509 1509 1509 1509 1509 1509 1509 1509 1509 1510 1510 1511 1511 1512
1512 1513 1505 1498 1494 1494 1497 1497 1496 1497 1499 1501 1502 1503 1504 1506 1506 1508 1508 1509 1508 1508 1507 1506 1506 1506 1506 1506 1506 1506 1506 1506 1506 1506 1506 1506 1506 1506 1506 1506 1507 1507 1508 1508
1510 1514 1511 1500 1495 1496 1498 1501 1498 1498 1500 1501 1502 1504 1505 1505 1506 1506 1506 1506 1506 1505 1505 1504 1504 1504 1504 1503 1503 1503 1503 1503 1503 1503 1503 1502 1502 1503 1503 1503 1503 1504 1504 1504
1510 1510 1502 1497 1497 1498 1506 1504 1499 1499 1500 1502 1502 1503 1504 1503 1503 1504 1504 1503 1503 1503 1502 1502 1501 1501 1501 1501 1501 1501 1500 1500 1500 1500 1500 1499 1499 1499 1499 1499 1499 1499 1499 1500
1506 1510 1506 1498 1498 1500 1502 1500 1500 1500 1501 1501 1501 1501 1501 1501 1501 1501 1501 1501 1500 1500 1499 1499 1499 1499 1499 1498 1498 1498 1497 1497 1497 1496 1496 1496 1496 1495 1495 1495 1495 1495 1495 1495
1501 1503 1499 1498 1499 1500 1500 1500 1500 1500 1500 1500 1500 1500 1500 1499 1499 1499 1499 1498 1498 1497 1497 1497 1496 1496 1496 1495 1495 1495 1494 1494 1493 1493 1493 1493 1492 1492 1491 1491 1491 1490 1490 1490
1498 1496 1497 1497 1498 1499 1499 1500 1499 1499 1499 1499 1498 1498 1497 1497 1497 1497 1496 1496 1495 1495 1494 1494 1494 1494 1493 1492 1492 1491 1491 1490 1490 1490 1489 1489 1489 1488 1488 1487 1487 1486 1486 1486
1497 1496 1496 1496 1497 1497 1497 1497 1497 1497 1497 1496 1496 1495 1495 1495 1494 1494 1494 1493 1493 1492 1492 1491 1491 1491 1490 1490 1489 1488 1488 1487 1487 1486 1486 1485 1485 1485 1484 1484 1483 1483 1482 1482
1496 1494 1494 1494 1494 1495 1495 1495 1494 1494 1493 1493 1493 1492 1492 1492 1491 1491 1491 1490 1490 1489 1489 1489 1488 1488 1487 1486 1486 1485 1484 1484 1483 1483 1482 1482 1481 1480 1480 1480 1479 1479 1478 1478
1492 1492 1492 1492 1492 1492 1492 1492 1491 1491 1491 1490 1489 1489 1489 1488 1488 1488 1488 1488 1487 1486 1486 1486 1485 1484 1484 1483 1483 1482 1481 1481 1480 1479 1479 1478 1477 1476 1475 1475 1475 1474 1473 1473
1490 1491 1490 1490 1490 1489 1489 1489 1488 1488 1488 1487 1486 1486 1485 1485 1485 1484 1484 1484 1483 1483 1482 1482 1481 1481 1481 1480 1479 1479 1478 1478 1477 1476 1475 1474 1473 1472 1471 1470 1469 1468 1468 1468
1489 1489 1488 1488 1487 1486 1486 1486 1485 1485 1484 1483 1483 1483 1482 1482 1481 1481 1481 1480 1479 1479 1478 1478 1478 1477 1477 1476 1476 1475 1474 1474 1473 1473 1472 1471 1470 1469 1468 1467 1465 1464 1463 1463
1486 1485 1485 1485 1484 1484 1483 1483 1482 1481 1481 1480 1479 1479 1479 1478 1478 1477 1477 1476 1476 1475 1474 1474 1473 1473 1473 1472 1472 1471 1470 1470 1469 1468 1467 1467 1466 1465 1464 1463 1462 1460 1459 1459
1483 1482 1482 1482 1481 1480 1480 1479 1479 1478 1477 1476 1475 1475 1475 1474 1474 1474 1473 1473 1472 1471 1470 1470 1469 1469 1469 1468 1468 1467 1466 1466 1465 1464 1463 1462 1461 1461 1459 1459 1457 1456 1455 1455
1480 1480 1480 1480 1479 1478 1477 1476 1475 1474 1474 1473 1472 1471 1471 1471 1470 1470 1469 1468 1468 1467 1466 1466 1465 1465 1464 1464 1463 1462 1462 1461 1461 1460 1459 1458 1457 1456 1455 1454 1453 1452 1451 1450
1477 1478 1477 1477 1476 1475 1474 1473 1472 1471 1470 1469 1469 1468 1467 1467 1466 1466 1465 1464 1464 1462 1462 1462 1461 1461 1460 1459 1459 1458 1458 1457 1456 1455 1454 1453 1452 1451 1450 1449 1448 1447 1446 1445
1475 1475 1475 1474 1473 1472 1471 1470 1469 1468 1467 1466 1465 1465 1464 1463 1463 1462 1462 1461 1460 1459 1458 1458 1457 1456 1455 1455 1454 1454 1453 1452 1451 1450 1450 1449 1447 1446 1445 1444 1443 1442 1441 1440
1473 1473 1472 1471 1470 1469 1468 1467 1466 1465 1464 1463 1463 1462 1461 1460 1460 1459 1458 1457 1456 1456 1455 1454 1453 1452 1451 1451 1450 1449 1448 1447 1447 1446 1445 1444 1443 1442 1440 1440 1439 1438 1436 1435
1471 1471 1470 1469 1468 1467 1465 1465 1463 1462 1461 1460 1460 1459 1458 1457 1456 1456 1455 1454 1453 1452 1451 1450 1449 1448 1447 1446 1445 1444 1444 1443 1442 1442 1440 1439 1438 1437 1436 1435 1434 1433 1432 1430
1469 1469 1468 1467 1466 1464 1463 1462 1461 1460 1458 1457 1457 1456 1455 1454 1453 1453 1451 1450 1450 1449 1448 1446 1445 1444 1443 1442 1441 1440 1440 1439 1438 1437 1436 1435 1434 1432 1431 1430 1429 1428 1426 1425
1467 1467 1466 1465 1464 1462 1461 1459 1458 1457 1456 1455 1454 1453 1452 1451 1449 1449 1448 1447 1446 1445 1444 1443 1442 1440 1439 1438 1437 1436 1435 1434 1434 1433 1432 1430 1429 1428 1427 1425 1424 1423 1421 1420
1465 1465 1464 1463 1461 1460 1458 1457 1455 1454 1453 1452 1451 1450 1449 1447 1446 1445 1445 1444 1443 1442 1440 1439 1438 1437 1436 1434 1433 1432 1431 1430 1429 1428 1427 1425 1424 1423 1421 1420 1419 1417 1416 1415
1463 1462 1461 1460 1459 1457 1456 1454 1452 1451 1450 1448 1447 1446 1445 1444 1443 1442 1441 1440 1439 1438 1437 1435 1434 1433 1432 1431 1430 1428 1427 1426 1425 1423 1422 1421 1419 1418 1416 1415 1414 1412 1411 1409
1460 1459 1458 1457 1456 1454 1453 1451 1450 1448 1447 1445 1444 1443 1442 1441 1440 1439 1438 1437 1436 1434 1433 1432 1431 1430 1428 1427 1426 1424 1423 1422 1420 1419 1417 1416 1414 1413 1411 1410 1408 1407 1406 1404